Overview Statistics Trail Chart Weather Telemetry Raw packets
 

This is the latest recevied weather packets stored in our database for station/object OK2JV-13. If no packets are shown the sender has not sent any weather packets the latest 10 day(s).

<< 33 34 35 36 37 38 39 >>
Time Temp. Humidity Pressure Rain* Wind** Luminosity Snow
1787958873 17.22° C 76% 1011.5 hPa - - - -
1787958268 17.78° C 67% 1011.4 hPa - - - -
1787957664 17.78° C 66% 1011.3 hPa - - - -
1787957060 17.78° C 67% 1011.1 hPa - - - -
1787956456 17.78° C 67% 1011 hPa - - - -
1787955853 17.78° C 68% 1011.3 hPa - - - -
1787955247 17.78° C 69% 1011.4 hPa - - - -
1787954643 17.78° C 67% 1011.2 hPa - - - -
1787954038 18.33° C 67% 1011.1 hPa - - - -
1787953435 18.33° C 67% 1010.9 hPa - - - -
1787952833 18.33° C 67% 1010.9 hPa - - - -
1787952227 18.89° C 68% 1010.4 hPa - - - -
1787951623 19.44° C 67% 1011 hPa - - - -
1787951024 20° C 63% 1011.1 hPa - - - -
1787950415 20.56° C 62% 1011.7 hPa - - - -
1787949811 21.67° C 59% 1012.2 hPa - - - -
1787949205 21.67° C 51% 1012.6 hPa - - - -
1787948601 22.22° C 47% 1012.6 hPa - - - -
1787947997 22.22° C 47% 1012.5 hPa - - - -
1787947393 22.22° C 47% 1012.5 hPa - - - -
1787946789 22.22° C 47% 1012.8 hPa - - - -
1787946185 22.22° C 46% 1012.8 hPa - - - -
1787945580 22.22° C 46% 1013.1 hPa - - - -
1787944976 22.22° C 46% 1013 hPa - - - -
1787944373 22.22° C 46% 1012.8 hPa - - - -

* Rain since midnight (hover to see other rain measurements)
** Current wind speed in m/s (hover to see current wind gust speed)